sat.trackr.live / text

‹ back to catalog

STARLINK-37215

NORAD 68392 · 2026-063N

PAYLOAD ACTIVE UNKNOWN

§ Identity

Operator
Country
US
Launch date
2026-03-26
Launch site
AFWTR
Launch vehicle
Mass (kg)
RCS (m²)

Purposes: comms

External: N2YO · Heavens-Above · Gunter

§ Orbital elements

Epoch: 2026-09-20T03:30:24.214176Z

Period
93.90 min
Inclination
97.2850°
Eccentricity
0.0001896
Mean motion
15.33468757 rev/d
Perigee alt
464.2 km
Apogee alt
466.8 km
Semi-major
6,843.6 km
B*
4.4532e-4
RAAN
44.0018°
Arg perigee
274.4422°
Mean anomaly
85.6604°
Rev number
2,769

§ Raw data

STARLINK-372151 68392U 26063N   26263.14611359  .00014340  00000+0  44532-3 0  99962 68392  97.2850  44.0018 0001896 274.4422  85.6604 15.33468757 27699

JSON: /api/v1/satellites/68392 · /tle

For live sub-satellite position, see the globe view (requires WebGL).

§ Visibility from observer

Set your observer location to see the next 7 days of passes ≥ 10°. The values pass through the URL so the page stays shareable.

No JS? Fill the form by hand. The geolocation button needs JavaScript.